Lid_Strength_Index
3 2 1 1 0 -0 0 -0 1 3 2 1 1 1 1 1 1 1 1 -0 -1 -1 -1 -1 -1 -1 -0
3 3 2 1 0 1 0 -0 0 3 2 2 2 2 2 2 2 2 1 1 0 1 0 -0 -1 -1 -1
4 3 2 2 1 1 1 0 0 2 3 3 2 2 2 2 2 2 2 2 2 2 2 1 1 -0 -1
3 3 3 2 2 2 3 2 1 1 3 3 3 3 3 2 3 3 4 3 2 2 3 3 3 1 0
4 4 4 4 3 2 3 3 3 2 2 2 2 2 2 3 3 5 5 4 3 3 3 3 3 2 2
6 4 4 3 3 3 3 4 5 2 3 4 2 2 1 2 3 3 5 4 3 4 3 3 3 3 3
9 9 3 4 3 4 4 3 4 4 3 4 3 3 2 2 4 4 4 4 4 4 4 4 4 3 3
8 9 8 3 2 3 4 4 3 4 3 6 4 4 3 3 5 5 5 4 5 4 5 4 4 4 4
7 7 8 7 3 2 4 5 6 5 4 5 5 5 5 5 4 6 5 5 5 5 5 5 5 5 5
9 6 7 7 6 2 3 6 5 6 5 5 7 8 10 9 5 5 4 5 6 6 5 5 6 4 5
8 8 5 5 5 2 1 3 5 5 5 4 8 11 12 12 10 9 6 6 6 6 5 5 6 5 6
10 9 6 3 3 2 1 2 2 3 5 3 12 7 9 13 13 13 11 8 7 8 7 6 6 6 6
12 10 8 3 3 2 2 2 3 4 5 4 7 7 7 9 13 14 14 13 11 10 9 9 8 8 8
12 11 9 7 3 2 4 4 7 13 12 6 7 7 9 9 11 13 14 14 12 11 11 13 12 11 11
12 11 10 9 4 3 4 6 8 9 14 15 13 13 13 12 13 11 13 15 12 12 13 15 15 14 13
11 11 11 10 5 5 5 6 8 8 10 15 14 14 15 14 14 12 14 15 13 13 13 14 16 15 14
11 11 10 10 6 6 6 6 8 9 10 12 12 11 12 12 16 14 14 15 15 14 14 15 16 16 15